Terminal Aerodrome Forecast
Issued by NWS Twin Cities, MN

Home | Current Version | Previous Version | Graphics & Text | Print | Product List | Glossary On
Versions: 1 2 3 4 5 6 7 8 9 10 11 12 13 14 15 16 17 18 19 20
000
FTUS43 KMPX 302320
TAFEAU
TAF
KEAU 302320Z 3100/3124 19006KT P6SM SCT100
     FM311100 31005KT P6SM SCT250
     FM311400 35007KT P6SM OVC020
     FM311800 01007KT P6SM SCT020 BKN150=

USA.gov is the U.S. government's official web portal to all federal, state and local government web resources and services.